Tracking 27086 objects as of 22-Mar-2023
HD Live streaming from Space Station
objects crossing your sky now

STARLINK-5451

Track STARLINK-5451 now!
10-day predictions
STARLINK-5451 is classified as:


NORAD ID: 54771
Int'l Code: 2022-175P
Perigee: 546.1 km
Apogee: 547.6 km
Inclination: 53.2 °
Period: 95.4 minutes
Semi major axis: 6917 km
RCS: Unknown
Launch date: December 17, 2022
Source: United States (US)
Launch site: AIR FORCE EASTERN TEST RANGE (AFETR)
Your satellite tracking list
Your tracking list is empty




NASA's NSSDC Master Catalog

Two Line Element Set (TLE):
1 54771U 22175P   23081.54228637  .00004380  00000-0  29310-3 0  9995
2 54771  53.2186 221.3498 0001089  66.6535 293.4572 15.08840472 14319
Source of the keplerian elements: AFSPC